Regional Weather Roundup
Issued by NWS Wakefield, VA

Home | Current Version | Previous Version | Text Only | Print | Product List | Glossary Off
Versions: 1 2 3 4 5 6 7 8 9 10 11 12 13 14 15 16 17 18 19 20 21 22 23 24 25 26 27 28 29 30 31 32 33 34 35 36 37 38 39 40 41 42 43 44 45 46 47 48 49 50

000
ASUS41 KAKQ 250415
RWRAKQ

REGIONAL WEATHER ROUNDUP
NATIONAL WEATHER SERVICE WAKEFIELD VA
1200 AM EDT MON MAY 25 2015

Note: "fair" indicates few or no clouds below 12,000 feet with no
significant weather and/or obstructions to visibility. * = Denotes
station may not report precipitation (e.g., rain,snow,etc.),
thunder or fog.

VAZ042-051-052>054-056-250500-
NORTHERN VIRGINIA

CITY           SKY/WX    TMP DP  RH WIND       PRES   REMARKS
WASH NATIONAL  MOCLDY    72  58  61 S8        30.27S
DULLES         CLEAR     69  55  60 S6        30.26S
FORT BELVOIR   CLEAR     64  58  81 SE3       30.26F
QUANTICO       CLEAR     72  56  57 SW7       30.28S
FREDERICKSBRG* CLEAR     71  58  62 S6        30.27S
STAFFORD*      CLEAR     67  55  65 S3        30.31S
WARRENTON      CLEAR     68  58  70 S5        30.26F
CULPEPER*      CLEAR     66  56  68 SW3       30.27F
MANASSAS*      CLEAR     66  57  72 S5        30.26F
LEESBURG*      CLEAR     70  59  68 S7        30.27S
WINCHESTER     CLEAR     66  50  55 S5        30.25S
FRONT ROYAL*   FAIR      68  54  60 S3        30.25S
LURAY*         FAIR      70  55  60 SW8       30.27S
$$

VAZ048-049-060>072-079>083-250500-
CENTRAL AND SOUTH CENTRAL VIRGINIA

CITY           SKY/WX    TMP DP  RH WIND       PRES   REMARKS
RICHMOND       PTCLDY    66  57  72 S8        30.30F
CHESTERFIELD*  NOT AVBL
PETERSBURG*    CLEAR     64  57  78 S3        30.32S
HANOVER        CLEAR     65  57  75 S5        30.31F
TAPPAHANNOCK*  CLEAR     65  55  70 S3        30.31S
QUINTON*       FAIR      68  58  71 CALM      30.31S
CHARLOTTSVILLE CLEAR     67  55  65 S9        30.28S
GORDONSVILLE*  FAIR      59  56  91 CALM      30.28S
ORANGE*        CLEAR     63  55  77 CALM      30.30S
LOUISA*        CLEAR     68  55  64 S3        30.28S
BUMPASS*       FAIR      66  56  68 CALM      30.29S
FARMVILLE*     CLEAR     63  56  77 CALM      30.29F
CREWE*         FAIR      60  57  90 CALM      30.31S
FORT PICKETT*  FAIR      63  57  82 S3        30.32S
CHASE CITY*    FAIR      63  60  91 CALM      30.32S
CLARKSVILLE*   FAIR      63  57  82 S5        30.32S
SOUTH HILL*    CLEAR     57  55  93 CALM      30.38S
LAWRENCEVILLE* FAIR      64  57  77 CALM      30.32S
EMPORIA*       CLEAR     63  55  77 SE3       30.34S
$$

VAZ088>098-250500-
SOUTHEAST VIRGINIA

CITY           SKY/WX    TMP DP  RH WIND       PRES   REMARKS
NORFOLK        CLEAR     66  54  65 S9        30.33S
VIRGINIA BEACH PTCLDY    67  57  70 S8        30.33S
NORFOLK NAVAL  PTCLDY    73  55  53 S8        30.34S
WEST POINT*    CLEAR     71  57  60 S7        30.33S
SALUDA*        FAIR      69  59  71 S5        30.31S
NEWPORT NEWS   CLEAR     73  56  54 S10       30.32F
LANGLEY AFB    CLEAR     69  56  63 SW10      30.32S
FORT EUSTIS    CLEAR     70  57  63 S8        30.30F
WILLIAMSBURG*  CLEAR     72  61  68 S9        30.33S
HR EXEC AP*    FAIR      66  55  68 S7        30.35S
FRANKLIN*      FAIR      66  55  66 S7        30.34F
WAKEFIELD      CLEAR     68  56  65 S6        30.33S
$$

VAZ020-022-025-037-045-250500-
WEST CENTRAL AND SOUTHWEST VIRGINIA

CITY           SKY/WX    TMP DP  RH WIND       PRES   REMARKS
STAUNTON*      CLEAR     62  53  72 CALM      30.31F
WAYNESBORO*    FAIR      64  53  66 CALM      30.30F
HOT SPRINGS VA CLEAR     60  49  65 S12       30.37F
LYNCHBURG      CLEAR     60  54  80 CALM      30.32F
DANVILLE       CLEAR     66  54  65 S3        30.32S
SOUTH BOSTON*  FAIR      59  57  91 CALM      30.31F
MARTINSVILLE   CLEAR     57  57 100 CALM      30.34F
ROANOKE        CLEAR     67  53  61 CALM      30.33F
BLACKSBURG     CLEAR     58  51  77 CALM      30.38S
DUBLIN*        CLEAR     63  53  69 CALM      30.36S
MARION*        PTCLDY    63  50  63 NW3       30.37S
HILLSVILLE*    CLEAR     61  51  70 S6        30.37S
RICHLANDS*     FAIR      65  51  60 S9        30.32F
WISE*          CLEAR     66  45  45 S9        30.31F
ABINGDON*      CLEAR     64  51  63 CALM      30.31F
$$

MDZ021>025-VAZ099-100-250500-
SOUTHERN MARYLAND AND THE DELMARVA PENINSULA

CITY           SKY/WX    TMP DP  RH WIND       PRES   REMARKS
PATUXENT RIVER CLEAR     66  59  78 S9        30.29R
BAY BRIDGE APT   N/A    N/A N/A N/A SE8       30.28S
LEONARDTOWN    CLEAR     64  57  77 S3        30.30S
DOVER          MOCLDY    65  56  75 S7        30.26S
GEORGETOWN     PTCLDY    61  52  72 S8        30.31F
EASTON         CLEAR     67  61  79 S6        30.32S
CAMBRIDGE      CLEAR     66  57  72 S5        30.29S
SALISBURY      CLEAR     60  52  74 S5        30.31S
OCEAN CITY     CLEAR     65  55  70 SW9       30.31F
WALLOPS ISLAND CLEAR     63  57  81 S13       30.32F
ACCOMACK*      CLEAR     64   5   9 S8        30.32S
$$

NCZ012>017-030>032-250500-
NORTH CENTRAL AND EASTERN NORTH CAROLINA

CITY           SKY/WX    TMP DP  RH WIND       PRES   REMARKS
ROANOKE RAPIDS FAIR      64  55  72 S6        30.34R
RALEIGH        PTCLDY    69  56  62 S7        30.34R
ELIZABETH CITY CLEAR     65  58  78 S6        30.35S
AHOSKIE*       CLEAR     63  55  75 S3        30.35S
EDENTON*       CLEAR     67  59  75 S7        30.35S
CURRITUCK*     CLEAR     66  55  67 CALM      30.36R
KILL DEVIL HLS CLEAR     64  56  75 CALM      30.35R
MANTEO         CLEAR     66  57  72 SE6       30.36S
CAPE HATTERAS  CLEAR     61  56  83 E3        30.36S
TARBORO*       FAIR      67  57  69 S5        30.35S
GOLDSBORO      CLEAR     67  60  78 CALM      30.33S
WASHINGTON     CLEAR     67  58  72 S5        30.36S
GREENVILLE     CLEAR     66  59  77 S5        30.35S
NEW BERN       CLEAR     62  57  83 CALM      30.36F
WILMINGTON     PTCLDY    65  60  84 CALM      30.35S
$$

VAZ048-250500-
ELSEWHERE

CITY           SKY/WX    TMP DP  RH WIND       PRES   REMARKS
HARRISBURG PA  MOCLDY    70  57  63 S9        30.24S
BALTIMORE      MOCLDY    66  60  81 CALM      30.27S
ANNAPOLIS      CLEAR     67  60  78 S6        30.27S
ANDREWS AFB    CLEAR     65  59  81 S8        30.26F
PHILADELPHIA   MOCLDY    66  55  67 S6        30.29S
HENDERSON NC   CLEAR     65  55  68 S5        30.33S
GREENSBORO     PTCLDY    68  54  60 S12       30.32S
ROCKY MOUNT    CLEAR     66  57  72 S5        30.35R
$$

VAZ100-250500-
MARINE

STATION/POSITION TIME  TEMP    WIND        PRES    WAVE   SWELL
                       AIR SEA DIR/SP/G            HT/PER HT/PER
                 (UTC) (F)     (DEG/KT/KT) (MB)    (FT/S) (FT/S)
BRANDYWINE LGT   0300   65 64  190/ 11/ 12 1026.4R
CAPE MAY NJ      0300   61 67  120/  4/  6 1026.4R
LEWES DE         0300   65 63  200/  5/  8 1026.1F
15NM E FENWICK I 0350   61 60              1026.3F   2/ 4
OCEAN-CITY-INLET 0300   63 67  220/ 14/ 16 1026.4F
WACHAPREAGUE VA  0300   66 69  210/  7/ 10 1027.1R
THOMAS POINT MD  0400   67 66  170/ 14/ 15 1025.5S
GOOSES REEF MD   0400   67 66  180/ 10/ 12 1026.2S   2/ 3
SOLOMONS ISLAND  0300      70                N/A
BISHOPS HEAD MD  0300   69 70  190/ 15/ 18 1025.5F
PINEY POINT MD   0300          180/  7/  9   N/A
CAMBRIDGE MD     0300   67 70  170/  4/  6 1025.5F
LEWISETTA VA     0300   68 71              1025.6S
RAPPAHANNOCK LGT 0300          180/ 15/ 17 1027.1R
STINGRAY PT      0400   71 69  200/ 12/ 16 1025.8F   2/ 3
YORK RVR RNG VA  0300   71     200/ 15/ 19 1025.9S
YORKTOWN VA      0300   72 72  190/  8/ 15 1026.4R
JAMESTOWN VA     0400   69 74  210/ 12/ 16 1025.6F
DOMINION TERM VA 0300   71     190/ 13/ 15 1027.0R
KIPTOPEKE VA     0300      73  180/ 11/ 13   N/A
CHES BAY BRIDGE  0300   69 69  170/ 13/ 15 1026.5S
CAPE HENRY VA    0300   68     180/  8/ 13 1025.8S
CHESAPEAKE LGHT  0300   67     180/ 18/ 19 1027.5S
WILLOUBY STN VA  0300   71     200/ 14/ 17 1027.5S
CAPE HENRY BUOY  0328      65                N/A     2/ 3
1ST LANDING BUOY 0400      68              1026.7R
CAPE CHARLES BUO 0326      66                N/A     2/ 4   2/ 7
OFFSHORE WE BUOY 0311      61                N/A     2/ 3   2/ 9
64NM E OF VA BCH 0350   64 62  170/  8/ 10 1027.5F   1/ 8   2/ 8
DUCK PIER NC     0300   66 62  160/  8/  9 1026.7F
44100 DUCK FRF   0324      64                N/A     2/ 8
44056 DUCK FRF   0311      64                N/A     1/ 7
OREGON INLET NC  0300   65 73  130/  5/  6 1028.0F
HATTERAS NC      0300   69 75   80/  3/  4 1027.6F
DIAMOND SHLS NC  0350   74 77  100/  6/  8 1028.0F   2/ 8   2/ 8
CAPE LOOKOUT NC  0400   73     130/ 10/ 11 1027.6F
$$



USA.gov is the U.S. government's official web portal to all federal, state and local government web resources and services.